Location: Unspecified
(0.0000°N, 0.0000°E)
Time: 20:14:15
(UTC+00:00)

N. Korean satellite - Pass Details

Date: 03 June 2020
Orbit: 452 x 505 km, 97.2° (Epoch: 30 October)

Event Time Altitude Azimuth Distance (km) Brightness Sun altitude
Rises 04:38:48 0° 35° (NE) 2,574 11.2 -18.3°
Reaches altitude 10° 04:41:16 10° 52° (NE) 1,686 10.5 -17.7°
Maximum altitude 04:44:00 20° 101° (E) 1,171 9.2 -17.1°
Drops below altitude 10° 04:46:43 10° 150° (SSE) 1,669 9.4 -16.5°
Enters shadow 04:51:08 -6° 174° (S) 3,329 10.7 -15.5°
